Location: ???? ????
(41.4149°N, 22.8816°E)
Time: 14:06:01
(UTC+00:00)

Cosmos 1869 Rocket - Pass Details

Date: 14 July 2020
Orbit: 605 x 633 km, 82.5° (Epoch: 04 August)

Event Time Altitude Azimuth Distance (km) Brightness Sun altitude
Exits shadow 00:27:33 55° 260° (W) 733 3.6 -21.7°
Maximum altitude 00:27:53 57° 280° (W) 720 3.7 -21.7°
Drops below altitude 10° 00:32:09 10° 359° (N) 1,967 7.0 -21.3°
Sets 00:34:26 0° 4° (N) 2,878 8.1 -21.1°
